{"data":{"norad_id":68117,"epoch":"2026-05-25T03:44:18.096864Z","epoch_age_seconds":71910,"freshness":"FRESH","line1":"1 68117U 26044S   26145.15576501  .00016018  00000+0  49731-3 0  9999","line2":"2 68117  97.2840 105.8150 0002375  98.6668 261.4844 15.33451457 13309","mean_motion":15.33451457,"eccentricity":0.0002375,"inclination_deg":97.284,"raan_deg":105.815,"arg_perigee_deg":98.6668,"mean_anomaly_deg":261.4844,"bstar":0.00049731,"rev_number":1330,"period_min":93.905809240103,"perigee_km":463.8985935777,"apogee_km":467.14933253515,"semimajor_km":6843.6609630564,"source":"CELESTRAK","updated_at":"2026-05-25T13:38:21.844130Z"}}